GW5008 Weather Reports


Display with metric or nautical units.
time (UTC)temp
F
wind
direction
speed
MPH
gust
MPH
rain 1hr
in
rain 24hr
in
rain mn
in
humidity
%
barometer
mb
20260504050305 43 95 2.0 3.0 0.00 0.00 0.00 59 1011.3
20260504045803 43 48 0.0 3.0 0.00 0.00 0.00 59 1011.4
20260504045304 43 258 0.0 1.0 0.00 0.00 0.00 59 1011.4
20260504044800 43 37 1.0 4.0 0.00 0.00 0.00 59 1011.4
20260504044257 42 224 0.0 3.0 0.00 0.00 0.00 60 1011.4
20260504043754 42 119 0.0 2.0 0.00 0.00 0.00 60 1011.4
20260504043251 42 209 0.0 1.0 0.00 0.00 0.00 60 1011.4
20260504042749 43 94 0.0 1.0 0.00 0.00 0.00 60 1011.3
20260504042245 42 92 0.0 0.0 0.00 0.00 0.00 60 1011.3
20260504041741 43 83 1.0 3.0 0.00 0.00 0.00 59 1011.3
20260504041237 43 82 1.0 2.0 0.00 0.00 0.00 58 1011.0
20260504040734 43 129 1.0 2.0 0.00 0.00 0.00 59 1011.0
20260504040231 43 138 0.0 1.0 0.00 0.00 0.00 59 1011.2
20260504035727 43 269 1.0 1.0 0.00 0.00 0.00 60 1011.3
20260504035225 43 139 0.0 1.0 0.00 0.00 0.00 58 1011.2
20260504034722 43 277 0.0 3.0 0.00 0.00 0.00 59 1011.2
20260504034219 43 54 0.0 1.0 0.00 0.00 0.00 59 1011.2
20260504033717 43 76 0.0 3.0 0.00 0.00 0.00 58 1011.2
20260504033214 43 85 1.0 2.0 0.00 0.00 0.00 58 1011.2
20260504032711 43 74 1.0 2.0 0.00 0.00 0.00 57 1011.3
20260504032208 43 75 0.0 1.0 0.00 0.00 0.00 59 1011.2
20260504031705 43 80 1.0 1.0 0.00 0.00 0.00 58 1011.2
20260504031201 43 193 0.0 2.0 0.00 0.00 0.00 57 1011.4
20260504030658 43 98 0.0 2.0 0.00 0.00 0.00 57 1011.0
20260504030155 43 81 0.0 3.0 0.00 0.00 0.00 56 1011.3
20260504025651 43 308 0.0 1.0 0.00 0.00 0.00 57 1011.4
20260504025148 43 124 0.0 0.0 0.00 0.00 0.00 57 1011.2
20260504024646 43 352 0.0 1.0 0.00 0.00 0.00 56 1011.5
20260504024142 44 111 2.0 2.0 0.00 0.00 0.00 55 1011.5
20260504023639 43 58 0.0 3.0 0.00 0.00 0.00 56 1011.4
20260504023135 44 42 0.0 0.0 0.00 0.00 0.00 58 1011.4
20260504022631 44 74 1.0 2.0 0.00 0.00 0.00 55 1011.5
20260504022127 44 27 0.0 2.0 0.00 0.00 0.00 55 1011.4
20260504021625 43 181 0.0 1.0 0.00 0.00 0.00 56 1011.3
20260504021121 43 355 0.0 0.0 0.00 0.00 0.00 57 1011.4
20260504020619 44 95 1.0 1.0 0.00 0.00 0.00 55 1011.3
20260504020115 44 75 0.0 2.0 0.00 0.00 0.00 55 1011.0
20260504015611 44 72 0.0 1.0 0.00 0.00 0.00 54 1011.4
20260504015107 44 91 0.0 2.0 0.00 0.00 0.00 54 1011.2
20260504014603 44 79 0.0 1.0 0.00 0.00 0.00 54 1011.0
20260504014101 44 235 0.0 2.0 0.00 0.00 0.00 55 1011.3
20260504013558 45 130 0.0 2.0 0.00 0.00 0.00 53 1011.3
20260504013055 45 71 0.0 1.0 0.00 0.00 0.00 55 1011.3
20260504012552 44 86 0.0 3.0 0.00 0.00 0.00 54 1011.3
20260504012050 45 355 0.0 1.0 0.00 0.00 0.00 53 1011.2
20260504011547 44 108 0.0 0.0 0.00 0.00 0.00 53 1010.9
20260504011043 44 88 0.0 1.0 0.00 0.00 0.00 52 1011.2
20260504010539 45 86 0.0 0.0 0.00 0.00 0.00 52 1010.9
20260504010035 45 118 0.0 0.0 0.00 0.00 0.00 52 1010.9
20260504005532 46 355 0.0 0.0 0.00 0.00 0.00 52 1010.9
20260504005030 46 115 2.0 2.0 0.00 0.00 0.00 52 1010.8
20260504004527 46 62 0.0 1.0 0.00 0.00 0.00 51 1010.7
20260504004024 47 82 1.0 2.0 0.00 0.00 0.00 50 1010.8
20260504003520 47 103 2.0 4.0 0.00 0.00 0.00 48 1010.6
20260504003017 47 130 2.0 2.0 0.00 0.00 0.00 48 1010.6
20260504002514 48 103 2.0 3.0 0.00 0.00 0.00 47 1010.4
20260504002011 48 97 0.0 2.0 0.00 0.00 0.00 47 1010.5
20260504001509 48 114 3.0 4.0 0.00 0.00 0.00 46 1010.4
20260504001005 49 80 0.0 3.0 0.00 0.00 0.00 46 1010.5
20260504000502 49 79 0.0 6.0 0.00 0.00 0.00 46 1010.4
20260503235959 49 71 2.0 4.0 0.00 0.00 0.00 45 1010.4
20260503235457 49 96 3.0 4.0 0.00 0.00 0.00 45 1010.3
20260503234954 50 99 3.0 6.0 0.00 0.00 0.00 43 1010.4
20260503234452 51 89 1.0 7.0 0.00 0.00 0.00 44 1010.3
20260503233950 51 62 2.0 6.0 0.00 0.00 0.00 42 1010.2
20260503233446 52 68 5.0 8.0 0.00 0.00 0.00 41 1010.2
20260503232942 52 63 2.0 7.0 0.00 0.00 0.00 41 1010.3
20260503232439 52 126 6.0 8.0 0.00 0.00 0.00 42 1010.2
20260503231937 51 27 2.0 6.0 0.00 0.00 0.00 43 1010.2
20260503231434 51 61 3.0 10.0 0.00 0.00 0.00 44 1010.3
20260503230931 51 51 4.0 9.0 0.00 0.00 0.00 43 1010.2
20260503230427 51 56 3.0 6.0 0.00 0.00 0.00 43 1010.2
20260503225925 51 57 4.0 6.0 0.00 0.00 0.00 43 1010.3
20260503225422 51 65 7.0 10.0 0.00 0.00 0.00 41 1010.1
20260503224917 51 88 6.0 9.0 0.00 0.00 0.00 42 1010.0
20260503224414 51 339 4.0 8.0 0.00 0.00 0.00 43 1010.1
20260503223912 51 81 6.0 8.0 0.00 0.00 0.00 42 1010.1
20260503223410 51 67 5.0 9.0 0.00 0.00 0.00 43 1009.9
20260503222910 51 82 5.0 14.0 0.00 0.00 0.00 42 1010.0
20260503222409 51 316 3.0 7.0 0.00 0.00 0.00 42 1009.8
20260503221907 51 22 4.0 7.0 0.00 0.00 0.00 43 1010.1
20260503221405 51 79 7.0 10.0 0.00 0.00 0.00 42 1010.2
20260503220901 51 80 9.0 10.0 0.00 0.00 0.00 43 1010.2
20260503220358 52 80 8.0 10.0 0.00 0.00 0.00 42 1010.0
20260503215855 53 104 6.0 11.0 0.00 0.00 0.00 41 1010.2
20260503215352 53 139 4.0 8.0 0.00 0.00 0.00 43 1010.1
20260503214849 52 100 9.0 10.0 0.00 0.00 0.00 43 1010.1
20260503214347 51 80 4.0 7.0 0.00 0.00 0.00 43 1010.1
20260503213844 51 87 3.0 15.0 0.00 0.00 0.00 44 1010.3
20260503213341 51 171 5.0 11.0 0.00 0.00 0.00 44 1010.2
20260503212838 51 265 2.0 14.0 0.00 0.00 0.00 46 1010.0
20260503212336 51 87 8.0 15.0 0.00 0.00 0.00 43 1010.0
20260503211833 53 162 4.0 9.0 0.00 0.00 0.00 42 1010.1
20260503211330 52 150 2.0 8.0 0.00 0.00 0.00 46 1010.0
20260503210825 51 68 8.0 10.0 0.00 0.00 0.00 45 1010.0
20260503210322 51 69 3.0 8.0 0.00 0.00 0.00 47 1010.1
20260503205817 51 86 7.0 11.0 0.00 0.00 0.00 44 1010.0
20260503205314 51 49 5.0 14.0 0.00 0.00 0.00 44 1010.0
20260503204811 51 153 3.0 11.0 0.00 0.00 0.00 45 1009.9
20260503204309 51 96 8.0 15.0 0.00 0.00 0.00 43 1010.1
20260503203806 51 72 4.0 15.0 0.00 0.00 0.00 44 1010.0
20260503203303 51 66 6.0 10.0 0.00 0.00 0.00 44 1010.1
20260503202800 51 63 2.0 7.0 0.00 0.00 0.00 45 1010.0
20260503202258 52 83 7.0 8.0 0.00 0.00 0.00 43 1010.0
20260503201755 52 90 3.0 14.0 0.00 0.00 0.00 44 1010.0
20260503201252 52 113 9.0 16.0 0.00 0.00 0.00 42 1009.8
20260503200749 52 80 4.0 10.0 0.00 0.00 0.00 42 1009.9
20260503200245 51 88 6.0 13.0 0.00 0.00 0.00 44 1009.8
20260503195742 53 119 6.0 13.0 0.00 0.00 0.00 42 1010.1
20260503195239 53 140 5.0 14.0 0.00 0.00 0.00 42 1009.9
20260503194737 54 253 8.0 15.0 0.00 0.00 0.00 41 1010.1
20260503194232 54 86 1.0 8.0 0.00 0.00 0.00 42 1010.1
20260503193729 53 83 6.0 13.0 0.00 0.00 0.00 40 1010.1
20260503193225 52 118 9.0 14.0 0.00 0.00 0.00 39 1010.1
20260503192721 55 69 10.0 17.0 0.00 0.00 0.00 39 1010.2
20260503192216 52 85 6.0 13.0 0.00 0.00 0.00 40 1010.1
20260503191713 52 65 7.0 17.0 0.00 0.00 0.00 43 1010.1
20260503191210 52 71 7.0 22.0 0.00 0.00 0.00 41 1010.3
20260503190707 53 109 9.0 13.0 0.00 0.00 0.00 39 1010.4
20260503190204 54 63 2.0 9.0 0.00 0.00 0.00 40 1010.4
20260503185701 51 106 3.0 10.0 0.00 0.00 0.00 44 1010.5
20260503185156 52 182 4.0 6.0 0.00 0.00 0.00 41 1010.6
20260503184651 51 75 7.0 11.0 0.00 0.00 0.00 41 1010.6
20260503184148 50 88 1.0 11.0 0.00 0.00 0.00 42 1010.7
20260503183644 52 77 13.0 18.0 0.00 0.00 0.00 38 1010.7
20260503183142 53 246 6.0 19.0 0.00 0.00 0.00 38 1010.6
20260503182639 54 104 5.0 10.0 0.00 0.00 0.00 39 1010.6
20260503182139 53 181 5.0 8.0 0.00 0.00 0.00 41 1010.8
20260503181635 52 144 9.0 19.0 0.00 0.00 0.00 39 1010.7
20260503181131 52 66 4.0 15.0 0.00 0.00 0.00 41 1010.8
20260503180628 51 48 5.0 11.0 0.00 0.00 0.00 40 1010.8
20260503180126 51 71 5.0 13.0 0.00 0.00 0.00 41 1010.8
20260503175622 51 114 13.0 21.0 0.00 0.00 0.00 40 1011.2
20260503175120 51 96 4.0 11.0 0.00 0.00 0.00 40 1010.9
20260503174616 51 40 2.0 10.0 0.00 0.00 0.00 41 1011.0
20260503174114 49 51 7.0 18.0 0.00 0.00 0.00 42 1011.3
20260503173608 49 83 9.0 14.0 0.00 0.00 0.00 42 1011.3
20260503173105 48 73 3.0 6.0 0.00 0.00 0.00 42 1011.5
20260503172602 50 140 6.0 10.0 0.00 0.00 0.00 43 1011.2
20260503172059 51 166 9.0 11.0 0.00 0.00 0.00 41 1011.3
20260503171555 49 137 5.0 14.0 0.00 0.00 0.00 44 1011.3
20260503171053 50 141 11.0 16.0 0.00 0.00 0.00 45 1011.4
20260503170549 49 115 5.0 9.0 0.00 0.00 0.00 46 1011.7
20260503150942 44 75 2.0 14.0 0.00 0.00 0.00 51 1012.0
20260503150439 44 220 5.0 16.0 0.00 0.00 0.00 51 1012.0
20260503131331 40 142 9.0 13.0 0.00 0.00 0.00 55 1012.4
20260503130829 40 83 8.0 17.0 0.00 0.00 0.00 56 1012.2
20260503130326 40 47 4.0 9.0 0.00 0.00 0.00 52 1012.3
20260503110720 33 92 1.0 7.0 0.00 0.00 0.00 84 1011.8
20260503110217 33 95 2.0 8.0 0.00 0.00 0.00 84 1011.8
20260503100144 32 51 0.0 1.0 0.00 0.00 0.00 86 1011.5
20260503081538 31 48 0.0 1.0 0.00 0.00 0.00 86 1010.8
20260503081036 32 127 0.0 1.0 0.00 0.00 0.00 86 1011.0
20260503080532 32 209 1.0 3.0 0.00 0.00 0.00 85 1010.9